| time (UTC) | temp C | wind direction | speed KPH | gust KPH | rain 1hr cm | rain 24hr cm | rain mn cm | humidity % | barometer mb |
| 20260510201504 | 11 | 62 | 3.2 | 6.4 | 0.00 | 0.00 | 0.00 | 75 | 1014.3 |
| 20260510201004 | 11 | 0 | 0.0 | 6.4 | 0.00 | 0.00 | 0.00 | 75 | 1014.3 |
| 20260510200503 | 11 | 0 | 0.0 | 4.8 | 0.00 | 0.00 | 0.00 | 74 | 1014.3 |
| 20260510194504 | 11 | 11 | 3.2 | 9.7 | 0.00 | 0.00 | 0.00 | 73 | 1014.3 |
| 20260510194004 | 11 | 359 | 3.2 | 6.4 | 0.00 | 0.00 | 0.00 | 72 | 1014.3 |
| 20260510193503 | 12 | 353 | 3.2 | 6.4 | 0.00 | 0.00 | 0.00 | 72 | 1014.2 |
| 20260510191504 | 12 | 33 | 3.2 | 19.3 | 0.00 | 0.00 | 0.00 | 71 | 1014.1 |
| 20260510190503 | 12 | 62 | 4.8 | 19.3 | 0.00 | 0.00 | 0.00 | 70 | 1014.2 |
| 20260510185004 | 12 | 63 | 6.4 | 20.9 | 0.00 | 0.00 | 0.00 | 70 | 1014.3 |
| 20260510183504 | 12 | 64 | 9.7 | 22.5 | 0.00 | 0.00 | 0.00 | 70 | 1014.4 |
| 20260510182005 | 13 | 56 | 12.9 | 25.7 | 0.00 | 0.00 | 0.00 | 69 | 1014.4 |
| 20260510181003 | 13 | 47 | 9.7 | 27.4 | 0.00 | 0.00 | 0.00 | 68 | 1014.4 |
| 20260510180003 | 13 | 44 | 12.9 | 32.2 | 0.00 | 0.00 | 0.00 | 69 | 1014.4 |
| 20260510175504 | 13 | 45 | 14.5 | 35.4 | 0.00 | 0.00 | 0.00 | 69 | 1014.3 |
| 20260510174006 | 13 | 49 | 9.7 | 35.4 | 0.00 | 0.00 | 0.00 | 69 | 1014.3 |
| 20260510173506 | 13 | 49 | 9.7 | 35.4 | 0.00 | 0.00 | 0.00 | 69 | 1014.3 |
| 20260510170506 | 13 | 60 | 12.9 | 30.6 | 0.00 | 0.00 | 0.00 | 69 | 1014.3 |
| 20260510170006 | 13 | 58 | 14.5 | 32.2 | 0.00 | 0.00 | 0.00 | 69 | 1014.3 |
| 20260510165506 | 13 | 56 | 14.5 | 32.2 | 0.00 | 0.00 | 0.00 | 69 | 1014.3 |
| 20260510165006 | 14 | 62 | 12.9 | 35.4 | 0.00 | 0.00 | 0.00 | 68 | 1014.3 |
| 20260510164506 | 14 | 58 | 12.9 | 35.4 | 0.00 | 0.00 | 0.00 | 67 | 1014.4 |
| 20260510163506 | 15 | 63 | 14.5 | 35.4 | 0.00 | 0.00 | 0.00 | 67 | 1014.2 |
| 20260510163006 | 15 | 54 | 14.5 | 35.4 | 0.00 | 0.00 | 0.00 | 67 | 1014.2 |
| 20260510161006 | 15 | 49 | 12.9 | 27.4 | 0.00 | 0.00 | 0.00 | 66 | 1014.1 |
| 20260510160506 | 15 | 52 | 14.5 | 40.2 | 0.00 | 0.00 | 0.00 | 66 | 1014.1 |
| 20260510160006 | 15 | 58 | 16.1 | 40.2 | 0.00 | 0.00 | 0.00 | 65 | 1014.1 |
| 20260510155506 | 15 | 62 | 16.1 | 45.1 | 0.00 | 0.00 | 0.00 | 65 | 1014.1 |
| 20260510154006 | 16 | 70 | 12.9 | 37.0 | 0.00 | 0.00 | 0.00 | 65 | 1014.1 |
| 20260510152505 | 16 | 65 | 9.7 | 22.5 | 0.00 | 0.00 | 0.00 | 64 | 1014.1 |
| 20260510152007 | 16 | 76 | 9.7 | 27.4 | 0.00 | 0.00 | 0.00 | 64 | 1014.2 |
| 20260510151505 | 16 | 76 | 12.9 | 35.4 | 0.00 | 0.00 | 0.00 | 65 | 1014.3 |
| 20260510151007 | 16 | 68 | 12.9 | 35.4 | 0.00 | 0.00 | 0.00 | 63 | 1014.3 |
| 20260510150505 | 16 | 64 | 12.9 | 35.4 | 0.00 | 0.00 | 0.00 | 65 | 1014.4 |
| 20260510144005 | 17 | 68 | 9.7 | 40.2 | 0.00 | 0.00 | 0.00 | 63 | 1014.4 |
| 20260510143506 | 17 | 72 | 9.7 | 40.2 | 0.00 | 0.00 | 0.00 | 59 | 1014.5 |
| 20260510141005 | 18 | 79 | 6.4 | 25.7 | 0.00 | 0.00 | 0.00 | 58 | 1014.7 |
| 20260510135505 | 17 | 78 | 9.7 | 32.2 | 0.00 | 0.00 | 0.00 | 58 | 1014.8 |
| 20260510135006 | 18 | 85 | 6.4 | 25.7 | 0.00 | 0.00 | 0.00 | 58 | 1014.9 |
| 20260510134505 | 17 | 76 | 6.4 | 25.7 | 0.00 | 0.00 | 0.00 | 59 | 1014.8 |
| 20260510134006 | 17 | 67 | 6.4 | 20.9 | 0.00 | 0.00 | 0.00 | 59 | 1014.9 |
| 20260510133005 | 17 | 87 | 9.7 | 22.5 | 0.00 | 0.00 | 0.00 | 61 | 1014.9 |
| 20260510132506 | 17 | 94 | 9.7 | 22.5 | 0.00 | 0.00 | 0.00 | 58 | 1014.9 |
| 20260510131506 | 17 | 74 | 9.7 | 32.2 | 0.00 | 0.00 | 0.00 | 59 | 1015.0 |
| 20260510131006 | 17 | 74 | 6.4 | 22.5 | 0.00 | 0.00 | 0.00 | 60 | 1015.0 |
| 20260510130505 | 17 | 73 | 12.9 | 32.2 | 0.00 | 0.00 | 0.00 | 60 | 1015.1 |
| 20260510130006 | 17 | 74 | 14.5 | 32.2 | 0.00 | 0.00 | 0.00 | 61 | 1015.2 |
| 20260510123005 | 17 | 62 | 6.4 | 35.4 | 0.00 | 0.00 | 0.00 | 58 | 1015.4 |
| 20260510122506 | 17 | 78 | 12.9 | 45.1 | 0.00 | 0.00 | 0.00 | 60 | 1015.3 |
| 20260510120505 | 16 | 74 | 14.5 | 37.0 | 0.00 | 0.00 | 0.00 | 60 | 1015.6 |
| 20260510120005 | 16 | 73 | 12.9 | 37.0 | 0.00 | 0.00 | 0.00 | 57 | 1015.7 |
| 20260510115507 | 16 | 72 | 12.9 | 40.2 | 0.00 | 0.00 | 0.00 | 60 | 1015.6 |
| 20260510114505 | 16 | 71 | 9.7 | 30.6 | 0.00 | 0.00 | 0.00 | 60 | 1015.7 |
| 20260510114006 | 16 | 80 | 9.7 | 35.4 | 0.00 | 0.00 | 0.00 | 60 | 1015.8 |
| 20260510112506 | 16 | 79 | 9.7 | 22.5 | 0.00 | 0.00 | 0.00 | 59 | 1015.9 |
| 20260510103505 | 15 | 91 | 9.7 | 27.4 | 0.00 | 0.00 | 0.00 | 64 | 1015.9 |
| 20260510103005 | 15 | 78 | 12.9 | 32.2 | 0.00 | 0.00 | 0.00 | 65 | 1015.9 |
| 20260510102005 | 15 | 68 | 6.4 | 27.4 | 0.00 | 0.00 | 0.00 | 65 | 1016.1 |
| 20260510101505 | 15 | 58 | 9.7 | 30.6 | 0.00 | 0.00 | 0.00 | 66 | 1016.0 |
| 20260510095505 | 15 | 61 | 12.9 | 40.2 | 0.00 | 0.00 | 0.00 | 65 | 1016.1 |
| 20260510092506 | 14 | 67 | 12.9 | 32.2 | 0.00 | 0.00 | 0.00 | 67 | 1016.1 |
| 20260510092005 | 14 | 61 | 12.9 | 41.8 | 0.00 | 0.00 | 0.00 | 69 | 1016.2 |
| 20260510091006 | 13 | 64 | 12.9 | 30.6 | 0.00 | 0.00 | 0.00 | 69 | 1016.3 |
| 20260510090005 | 13 | 61 | 14.5 | 41.8 | 0.00 | 0.00 | 0.00 | 67 | 1016.5 |
| 20260510085505 | 14 | 57 | 9.7 | 32.2 | 0.00 | 0.00 | 0.00 | 70 | 1016.3 |
| 20260510085005 | 14 | 69 | 9.7 | 27.4 | 0.00 | 0.00 | 0.00 | 68 | 1016.4 |
| 20260510084505 | 14 | 76 | 9.7 | 27.4 | 0.00 | 0.00 | 0.00 | 68 | 1016.4 |
| 20260510083005 | 13 | 77 | 9.7 | 25.7 | 0.00 | 0.00 | 0.00 | 72 | 1016.5 |
| 20260510081505 | 12 | 59 | 14.5 | 27.4 | 0.00 | 0.00 | 0.00 | 75 | 1016.6 |
| 20260510081006 | 12 | 60 | 14.5 | 35.4 | 0.00 | 0.00 | 0.00 | 76 | 1016.6 |
| 20260510075505 | 11 | 59 | 14.5 | 35.4 | 0.00 | 0.00 | 0.00 | 78 | 1016.8 |
| 20260510074505 | 11 | 64 | 12.9 | 32.2 | 0.00 | 0.00 | 0.00 | 80 | 1016.9 |
| 20260510074005 | 10 | 61 | 12.9 | 32.2 | 0.00 | 0.00 | 0.00 | 81 | 1016.8 |
| 20260510073505 | 10 | 62 | 9.7 | 25.7 | 0.00 | 0.00 | 0.00 | 82 | 1016.8 |
| 20260510072006 | 10 | 54 | 6.4 | 16.1 | 0.00 | 0.00 | 0.00 | 82 | 1016.8 |
| 20260510065505 | 10 | 62 | 9.7 | 22.5 | 0.00 | 0.00 | 0.00 | 82 | 1016.7 |
| 20260510064504 | 10 | 71 | 9.7 | 22.5 | 0.00 | 0.00 | 0.00 | 82 | 1016.5 |
| 20260510064004 | 10 | 69 | 12.9 | 25.7 | 0.00 | 0.00 | 0.00 | 81 | 1016.4 |
| 20260510063505 | 10 | 63 | 12.9 | 25.7 | 0.00 | 0.00 | 0.00 | 81 | 1016.5 |
| 20260510061505 | 10 | 60 | 9.7 | 32.2 | 0.00 | 0.00 | 0.00 | 81 | 1016.2 |
| 20260510055504 | 10 | 44 | 6.4 | 20.9 | 0.00 | 0.00 | 0.00 | 80 | 1016.2 |
| 20260510054505 | 10 | 41 | 6.4 | 20.9 | 0.00 | 0.00 | 0.00 | 80 | 1016.2 |
| 20260510054005 | 10 | 42 | 6.4 | 22.5 | 0.00 | 0.00 | 0.00 | 80 | 1016.2 |
| 20260510053505 | 10 | 41 | 6.4 | 22.5 | 0.00 | 0.00 | 0.00 | 79 | 1016.1 |
| 20260510052505 | 10 | 57 | 9.7 | 25.7 | 0.00 | 0.00 | 0.00 | 78 | 1016.1 |
| 20260510051505 | 10 | 42 | 6.4 | 22.5 | 0.00 | 0.00 | 0.00 | 78 | 1016.1 |
| 20260510050504 | 10 | 56 | 6.4 | 20.9 | 0.00 | 0.00 | 0.00 | 77 | 1016.2 |
| 20260510050005 | 10 | 73 | 4.8 | 25.7 | 0.00 | 0.00 | 0.00 | 77 | 1016.2 |
| 20260510045505 | 10 | 72 | 4.8 | 25.7 | 0.00 | 0.00 | 0.00 | 76 | 1016.1 |
| 20260510044504 | 10 | 61 | 4.8 | 16.1 | 0.00 | 0.00 | 0.00 | 76 | 1016.1 |
| 20260510043504 | 10 | 61 | 6.4 | 20.9 | 0.00 | 0.00 | 0.00 | 75 | 1016.1 |
| 20260510042005 | 10 | 66 | 4.8 | 16.1 | 0.00 | 0.00 | 0.00 | 74 | 1016.0 |
| 20260510040004 | 11 | 60 | 4.8 | 11.3 | 0.00 | 0.00 | 0.00 | 73 | 1016.0 |
| 20260510033504 | 11 | 61 | 4.8 | 19.3 | 0.00 | 0.00 | 0.00 | 75 | 1016.1 |
| 20260510032504 | 11 | 59 | 4.8 | 16.1 | 0.00 | 0.00 | 0.00 | 77 | 1016.2 |
| 20260510032004 | 12 | 50 | 4.8 | 16.1 | 0.00 | 0.00 | 0.00 | 77 | 1016.1 |
| 20260510031505 | 12 | 58 | 4.8 | 19.3 | 0.00 | 0.00 | 0.00 | 77 | 1016.2 |
| 20260510030005 | 12 | 62 | 6.4 | 20.9 | 0.00 | 0.00 | 0.00 | 76 | 1016.1 |
| 20260510024504 | 12 | 50 | 4.8 | 11.3 | 0.00 | 0.00 | 0.00 | 75 | 1016.2 |